User: anonymous   Login
Location: Luz Observatory
(34.5000°N, 117.2833°W)
Time: 13:39:34
(UTC-08:00)
Language:

Okean 3 Rocket - Orbit

View from above orbital plane
View from above orbital plane
View from above satellite
View from above satellite

Ground track
Ground track

The orbit data is extracted from the following two-line orbital elements,

1 21398U 91039B   16037.89222618 +.00000220 +00000-0 +26183-4 0  9998
2 21398 082.5255 328.1428 0021862 013.5002 023.6539 14.79572987309481
Epoch (UTC): 06 February 2016 21:24:48
Eccentricity: 0.0021862
inclination: 82.5255°
perigee height: 615 km
apogee height: 646 km
right ascension of ascending node: 328.1428°
argument of perigee: 13.5002°
revolutions per day: 14.79572987
mean anomaly at epoch: 23.6539°
orbit number at epoch: 30948

The dashed part of the orbit path shows where the satellite is in the earth's shadow,  

DLR